STARLINK-30503, 57975

Orbit data source: Space-Track

STARLINK-30503, 57975 is a payload satellite owned by SpaceX/Seattle (US) in LEO that was launched on Sat, 30 Sep 2023 UTC via an FALCON 9 launch vehicle from the Air Force Eastern Test Range (AFETR). Payload-class satellites include a variety of spacecraft equipped with specific instruments for various scientific and technological missions. These include communications satellites like Starlink; space stations such as the ISS; scientific satellites like the Hubble; Earth observation satellites from companies like Planet Labs, Umbra, and HawkEye 360; GPS; miniature CubeSats for education and research; and military/defense satellites.

Loading next visibility...
Identifier
57975, 2023-151M
Orbit
LEO
Country
Flag of USUS
Related business
Manufacturer
SpaceX/Seattle
Mission
Operational Commercial Communications
Bus & Motor
STARLINK V2M, Unknown motor
Mass
730 kg wet, ~700 kg dry
Launch date (UTC)
2023-09-30 (3 years ago)
Launch vehicle
FALCON 9
Launch site
Air Force Eastern Test Range (AFETR)
Object type
Payload
Rocket body
Debris
Shape & HBR
Box + 2 Pan, 17.7 m
Radar Cross Section
33.884 m², Large (>1 m²)

Expand to show TLE details & history
Last TLE update: 1 day ago

TLE from 1 day ago
0 STARLINK-30503
1 57975U 23151M   26236.34932419  .00001080  00000-0  48776-4 0  9994
2 57975  43.0018 109.4739 0001238 268.2636  91.8074 15.27570312161405
Epoch: 2026-08-24T08:23Z
TLE epoch observation values (Epoch: 2026-08-24T08:23:01.610Z)
Latitude
0.00001°
Longitude
11.0849°
Altitude
482.881 km
Speed
7.626 km/s
True Right ascension
07h 17m 53s
True Declination
0° 00' 00"
Sunlit
Object was in daylight at epoch
Visualization orbit readout
Latitude
Unknown
Longitude
Unknown
Altitude
Unknown
Speed
Unknown
Apparent Right ascension
Unknown
Apparent Declination
Unknown
Sunlit
N/A
Visualization observer readout
Local Sidereal Time
00:48:29
Azimuth
Unknown
Elevation
Unknown
Doppler factor
Unknown
Orbital elements
Apogee altitude
485.873 km
Perigee altitude
484.173 km
Semi-major axis
6,863.16 km
Eccentricity
0.00012
Inclination
43.0018°
RAAN
109.4739°
Arg. of periapsis
268.2636°
True anomaly
91.82158°
Mean anomaly
91.8074°
Eccentric anomaly
91.81449°
Mean motion
3.81731 °/min
Orbital period
94.31 mins
BSTAR
0.000048776
Loading maneuver chart data...
Computing Atmospheric mass density...
Loading historical data...
Loading historical data...
Loading historical data...
Loading historical data...
Loading historical data...
Loading historical data...
Loading historical data...

Documentation

Showing up to 5 results
|